Location: Arthez
(43.0833°N, 0.2500°W)
Time: 21:31:01
(UTC+00:00)

deb Kosmos-970 - Pass Details

Date: 21 August 2022
Orbit: 900 x 1112 km, 65.8° (Epoch: 28 September)

Event Time Altitude Azimuth Distance (km) Brightness Sun altitude
Rises 22:47:28 0° 329° (NNW) 3,943 ? -32.3°
Reaches altitude 10° 22:50:16 10° 334° (NNW) 2,972 ? -32.5°
Maximum altitude 22:57:11 54° 51° (NE) 1,294 ? -33.0°
Enters shadow 22:57:14 54° 52° (NE) 1,293 ? -33.0°
